Regional Weather Roundup
Issued by NWS

Home | Current Version | Previous Version | Graphics & Text | Print | Product List | Glossary Off
Versions: 1 2 3 4 5 6 7 8 9 10 11 12 13 14 15 16 17 18 19 20 21 22 23 24 25 26 27 28 29 30 31 32 33 34 35 36 37 38 39 40 41 42 43 44 45 46 47 48 49 50

000
ASUS43 KTOP 200659
RWRKS

WEATHER ROUNDUP FOR KANSAS
NATIONAL WEATHER SERVICE GOODLAND KS
100 AM CST MON FEB 20 2017

NOTE:  "FAIR" INDICATES FEW OR NO CLOUDS BELOW 12,000 FEET WITH NO
SIGNIFICANT WEATHER AND/OR OBSTRUCTIONS TO VISIBILITY.

KSZ001>006-013>018-027>032-041>047-200800-
NORTHWEST KANSAS

CITY           SKY/WX    TMP DP  RH WIND       PRES   REMARKS
GOODLAND       CLEAR     48  33  56 S13       29.66R
HAYS           CLOUDY    56  54  93 S13       29.72S FOG
HILL CITY      CLOUDY    55  53  93 S3        29.70S
RUSSELL        CLOUDY    57  56  96 S20       29.71F FOG
$$

KSZ061>065-074>080-084>089-200800-
SOUTHWEST KANSAS

CITY           SKY/WX    TMP DP  RH WIND       PRES   REMARKS
DODGE CITY     CLOUDY    54  44  69 SE13      29.73S
ELKHART          N/A     48  27  44 SW10        N/A
GARDEN CITY    PTCLDY    49  37  63 E6        29.70F
GREAT BEND     CLOUDY    59  57  93 S14       29.73F FOG
LIBERAL        CLOUDY    50  34  53 SE9       29.74R
$$

KSZ066>073-081>083-090>101-200800-
SOUTHEAST KANSAS

CITY           SKY/WX    TMP DP  RH WIND       PRES   REMARKS
CHANUTE        CLOUDY    67  55  65 SE17G26   29.85F
COFFEYVILLE    MOCLDY    64  56  75 SE13      29.85F
HUTCHINSON     RAIN      59  58  96 SE15      29.78S
MEDICINE LODGE   N/A     56  56 100 SE7       29.78R
NEWTON         CLOUDY    58  57  97 S14       29.82S FOG
PARSONS        MOCLDY    66  55  67 SE10G21   29.86F
WICHITA INTL   RAIN      58  57  97 S7        29.81R
WICHITA JABRA  HVY RAIN  57  57 100 S10       29.82S
WINFIELD       HVY RAIN  59  58  96 SE8       29.85R FOG
$$

KSZ007>012-019>026-033>040-048>060-102>105-200800-
NORTHEAST KANSAS

CITY           SKY/WX    TMP DP  RH WIND       PRES   REMARKS
CONCORDIA      LGT RAIN  60  58  92 S20G26    29.75F
EMPORIA        CLOUDY    63  57  81 SE20G28   29.80F
LAWRENCE       MOCLDY    58  54  86 E12       29.85F
MANHATTAN      TSTM      60  58  92 S6        29.82S FOG
OLATHE IND     CLOUDY    59  53  80 SE9       29.88F
OLATHE EXE     CLOUDY    60  56  86 SE15      29.88S
SALINA         CLOUDY    60  57  89 SE10      29.78R
TOPEKA BILLARD CLOUDY    64  56  75 S15       29.83F
TOPEKA FORBES  CLOUDY    65  56  72 SE12      29.83F
$$



USA.gov is the U.S. government's official web portal to all federal, state and local government web resources and services.